Date,Time,Wetness (Wet Dry or Ice),Wind Speed (m/s),Temperature (C),Humidity (%),Pressure (mb),Radiation (W/m^2)
2020-09-28,23:10:00,DRY,4.83,12.23,22.0,775.00,1.4
2020-09-28,23:15:00,DRY,4.70,12.30,22.0,775.00,1.3
2020-09-28,23:20:00,DRY,3.87,12.23,21.7,775.00,1.2
2020-09-28,23:25:00,DRY,3.60,12.25,22.5,775.00,1.9
2020-09-28,23:30:00,DRY,3.23,12.33,22.0,775.00,1.1
2020-09-28,23:35:00,DRY,3.90,12.35,21.0,775.00,1.2
2020-09-28,23:40:00,DRY,3.47,12.27,20.3,775.00,1.2
2020-09-28,23:45:00,DRY,2.50,12.20,20.5,775.00,1.2
2020-09-28,23:50:00,DRY,3.10,12.17,20.7,775.00,0.9
2020-09-28,23:55:00,DRY,3.70,12.20,20.0,775.00,1.2
2020-09-29,00:00:00,DRY,3.90,12.23,20.7,775.00,1.3
2020-09-29,00:05:00,DRY,3.60,12.45,20.0,775.00,1.8
2020-09-29,00:10:00,DRY,3.17,12.47,20.3,775.00,1.5
2020-09-29,00:15:00,DRY,3.70,12.50,20.0,775.00,1.3
2020-09-29,00:20:00,DRY,3.13,12.53,19.7,775.00,1.4
2020-09-29,00:25:00,DRY,3.10,12.50,20.0,775.00,1.0
2020-09-29,00:30:00,DRY,2.63,12.63,19.0,775.00,1.2
2020-09-29,00:35:00,DRY,3.45,12.60,19.0,775.00,1.6
2020-09-29,00:40:00,DRY,3.63,12.40,20.0,775.00,1.0
2020-09-29,00:45:00,DRY,3.50,12.40,19.5,775.00,1.5
2020-09-29,00:50:00,DRY,3.50,12.57,18.7,775.00,1.3
2020-09-29,00:55:00,DRY,3.90,12.70,17.5,775.00,1.1
2020-09-29,01:00:00,DRY,3.70,12.60,18.0,775.00,1.0
2020-09-29,01:05:00,DRY,3.70,12.75,18.0,775.00,1.0
2020-09-29,01:10:00,DRY,3.20,12.67,18.0,775.00,1.2
2020-09-29,01:15:00,DRY,2.90,12.85,19.0,775.00,1.4
2020-09-29,01:20:00,DRY,2.60,12.80,18.7,774.00,0.7
2020-09-29,01:25:00,DRY,2.65,12.70,19.0,774.00,0.8
2020-09-29,01:30:00,DRY,2.43,12.73,20.0,774.00,1.1
2020-09-29,01:35:00,DRY,3.25,12.75,18.5,774.00,1.4
2020-09-29,01:40:00,DRY,2.73,12.40,18.7,774.00,1.8
2020-09-29,01:45:00,DRY,2.75,12.35,19.0,774.00,1.6
2020-09-29,01:50:00,DRY,2.70,12.40,19.3,774.00,1.1
2020-09-29,01:55:00,DRY,2.35,12.35,18.0,774.00,1.1
2020-09-29,02:00:00,DRY,2.40,12.43,18.3,774.00,1.0
2020-09-29,02:05:00,DRY,3.05,12.55,19.0,774.00,0.8
2020-09-29,02:10:00,DRY,2.00,12.63,20.0,774.00,0.3
2020-09-29,02:15:00,DRY,2.25,12.65,20.0,774.00,1.0
2020-09-29,02:20:00,DRY,2.77,12.87,19.7,774.00,1.3
2020-09-29,02:25:00,DRY,2.05,13.00,19.5,774.00,1.2
2020-09-29,02:30:00,DRY,2.17,12.90,25.3,774.00,1.0
2020-09-29,02:35:00,DRY,2.65,13.20,31.0,774.00,1.5
2020-09-29,02:40:00,DRY,1.97,13.17,32.3,774.00,1.9
2020-09-29,02:45:00,DRY,2.05,13.00,28.5,774.00,1.2
2020-09-29,02:50:00,DRY,1.83,13.00,24.3,774.00,0.8
2020-09-29,02:55:00,DRY,2.60,12.80,22.5,774.00,1.1
2020-09-29,03:00:00,DRY,2.47,12.97,27.3,774.00,1.5
2020-09-29,03:05:00,DRY,2.40,12.40,24.0,774.00,0.7
2020-09-29,03:10:00,DRY,1.97,12.50,21.3,774.00,1.3
2020-09-29,03:15:00,DRY,1.75,12.70,19.5,774.00,1.4
2020-09-29,03:20:00,DRY,2.33,12.80,19.3,774.00,1.7
2020-09-29,03:25:00,DRY,2.30,12.60,22.5,774.00,1.2
2020-09-29,03:30:00,DRY,3.40,12.67,25.3,773.67,1.0
2020-09-29,03:35:00,DRY,2.85,12.65,23.5,773.00,1.4
2020-09-29,03:40:00,DRY,1.73,12.73,20.3,774.00,1.0
2020-09-29,03:45:00,DRY,2.25,12.75,19.5,774.00,1.1
2020-09-29,03:50:00,DRY,2.13,12.70,18.7,774.00,1.4
2020-09-29,03:55:00,DRY,2.45,12.75,20.5,774.00,1.2
2020-09-29,04:00:00,DRY,2.47,12.73,21.3,774.00,1.5
2020-09-29,04:05:00,DRY,2.55,12.55,20.0,774.00,1.4
2020-09-29,04:10:00,DRY,2.17,12.57,23.0,773.67,1.9
2020-09-29,04:15:00,DRY,3.10,12.65,25.0,773.50,1.6
2020-09-29,04:20:00,DRY,3.33,12.60,22.7,773.00,1.4
2020-09-29,04:25:00,DRY,2.85,12.45,21.0,773.50,0.9
2020-09-29,04:30:00,DRY,2.40,12.20,20.7,773.00,0.7
2020-09-29,04:35:00,DRY,3.55,11.95,22.5,773.50,1.1
2020-09-29,04:40:00,DRY,3.13,11.83,20.7,773.00,1.2
2020-09-29,04:45:00,DRY,2.90,12.30,19.0,773.50,0.6
2020-09-29,04:50:00,DRY,3.47,12.43,19.0,773.33,0.9
2020-09-29,04:55:00,DRY,4.65,12.30,19.5,773.50,1.4
2020-09-29,05:00:00,DRY,3.43,12.07,19.7,773.67,1.6
2020-09-29,05:05:00,DRY,3.50,11.90,21.5,773.50,1.4
2020-09-29,05:10:00,DRY,3.73,11.87,21.3,773.00,1.2
2020-09-29,05:15:00,DRY,3.10,12.00,21.0,773.00,1.6
2020-09-29,05:20:00,DRY,3.93,12.07,20.7,773.00,1.2
2020-09-29,05:25:00,DRY,5.45,12.00,21.5,773.00,1.1
2020-09-29,05:30:00,DRY,3.57,11.87,21.7,773.00,1.5
2020-09-29,05:35:00,DRY,3.75,11.95,20.5,773.00,1.6
2020-09-29,05:40:00,DRY,3.43,11.77,24.3,773.33,1.2
2020-09-29,05:45:00,DRY,3.00,11.45,25.0,773.00,1.3
2020-09-29,05:50:00,DRY,3.57,11.17,27.3,773.33,1.4
2020-09-29,05:55:00,DRY,3.40,11.50,23.0,774.00,1.3
2020-09-29,06:00:00,DRY,3.33,12.30,19.7,774.00,1.0
2020-09-29,06:05:00,DRY,3.10,12.20,20.5,774.00,1.4
2020-09-29,06:10:00,DRY,3.20,11.97,22.0,773.67,1.3
2020-09-29,06:15:00,DRY,3.05,12.35,21.0,774.00,1.1
2020-09-29,06:20:00,DRY,3.70,12.27,19.7,774.00,1.2
2020-09-29,06:25:00,DRY,3.50,12.45,18.5,774.00,1.4
2020-09-29,06:30:00,DRY,3.50,12.37,18.7,774.00,1.4
2020-09-29,06:35:00,DRY,2.80,12.55,18.5,774.00,1.5
2020-09-29,06:40:00,DRY,3.17,12.50,18.3,774.00,1.5
2020-09-29,06:45:00,DRY,2.75,12.60,18.5,774.00,2.0
2020-09-29,06:50:00,DRY,2.97,12.60,19.3,774.00,2.4
2020-09-29,06:55:00,DRY,3.30,12.70,19.0,774.00,3.0
2020-09-29,07:00:00,DRY,3.23,12.83,19.7,774.00,5.5
2020-09-29,07:05:00,DRY,2.75,12.70,19.5,774.00,8.0
2020-09-29,07:10:00,DRY,2.50,12.73,19.7,774.00,11.4
2020-09-29,07:15:00,DRY,2.70,12.45,19.5,774.00,14.1
2020-09-29,07:20:00,DRY,3.37,11.87,21.7,774.00,16.9
2020-09-29,07:25:00,DRY,3.20,11.55,23.5,774.00,19.5
2020-09-29,07:30:00,DRY,3.10,12.27,19.0,774.00,21.7
2020-09-29,07:35:00,DRY,2.75,12.60,18.0,774.00,23.5
2020-09-29,07:40:00,DRY,2.43,12.80,18.7,774.00,27.6
2020-09-29,07:45:00,DRY,2.35,12.95,18.0,774.00,84.0
2020-09-29,07:50:00,DRY,1.97,12.93,18.7,774.00,185.0
2020-09-29,07:55:00,DRY,2.25,13.20,18.0,774.00,219.0
2020-09-29,08:00:00,DRY,2.03,13.47,18.3,774.00,243.5
2020-09-29,08:05:00,DRY,2.15,13.55,18.0,774.00,265.4
2020-09-29,08:10:00,DRY,2.37,13.50,18.3,774.00,289.2
2020-09-29,08:15:00,DRY,2.45,13.35,19.0,774.00,312.2
2020-09-29,08:20:00,DRY,2.50,13.40,19.0,774.00,335.6
2020-09-29,08:25:00,DRY,2.60,13.40,19.0,774.00,358.1
2020-09-29,08:30:00,DRY,2.83,13.47,19.7,774.00,380.5
2020-09-29,08:35:00,DRY,2.65,13.50,19.0,774.00,403.1
2020-09-29,08:40:00,DRY,2.57,13.47,20.0,774.00,424.3
2020-09-29,08:45:00,DRY,2.50,13.50,20.0,774.00,445.8
2020-09-29,08:50:00,DRY,2.50,13.70,20.0,774.00,468.3
2020-09-29,08:55:00,DRY,2.60,13.80,20.0,774.00,489.6
2020-09-29,09:00:00,DRY,2.43,13.93,20.7,774.00,510.4
2020-09-29,09:05:00,DRY,2.40,14.00,20.0,774.00,532.0
2020-09-29,09:10:00,DRY,2.73,13.97,20.3,774.00,551.9
2020-09-29,09:15:00,DRY,3.05,14.00,20.0,774.00,572.8
2020-09-29,09:20:00,DRY,2.90,13.93,20.0,774.00,593.4
2020-09-29,09:25:00,DRY,2.90,14.00,21.0,774.00,612.5
2020-09-29,09:30:00,DRY,2.33,14.03,21.3,774.00,633.5
2020-09-29,09:35:00,DRY,2.10,14.05,20.0,774.00,652.2
2020-09-29,09:40:00,DRY,2.80,14.23,20.3,774.00,672.6
2020-09-29,09:45:00,DRY,2.10,14.25,21.0,774.00,690.2
2020-09-29,09:50:00,DRY,1.87,14.20,21.7,774.00,709.0
2020-09-29,09:55:00,DRY,2.65,14.20,21.5,774.00,726.1
2020-09-29,10:00:00,DRY,2.80,14.53,22.0,774.00,744.7
2020-09-29,10:05:00,DRY,3.25,14.70,21.5,774.00,761.5
2020-09-29,10:10:00,DRY,2.40,14.90,22.7,774.00,778.0
2020-09-29,10:15:00,DRY,3.25,14.95,23.5,774.00,794.2
2020-09-29,10:20:00,DRY,2.30,14.87,22.0,774.00,809.4
2020-09-29,10:25:00,DRY,3.25,15.00,23.0,774.00,825.0
2020-09-29,10:30:00,DRY,2.10,14.97,21.3,774.33,840.1
2020-09-29,10:35:00,DRY,3.00,15.30,23.5,774.00,854.2
2020-09-29,10:40:00,DRY,2.40,15.07,23.3,774.67,868.4
2020-09-29,10:45:00,DRY,2.80,14.90,23.5,774.50,881.6
2020-09-29,10:50:00,DRY,2.03,15.13,24.7,774.00,894.6
2020-09-29,10:55:00,DRY,2.40,15.10,23.5,774.00,908.6
2020-09-29,11:00:00,DRY,2.10,15.13,22.0,774.00,920.2
2020-09-29,11:05:00,DRY,3.00,15.40,23.0,774.00,931.0
2020-09-29,11:10:00,DRY,1.87,15.60,21.3,774.00,942.0
2020-09-29,11:15:00,DRY,2.25,15.40,23.0,774.50,953.1
2020-09-29,11:20:00,DRY,2.33,15.67,23.0,774.33,964.9
2020-09-29,11:25:00,DRY,1.55,16.00,25.5,774.00,973.0
2020-09-29,11:30:00,DRY,2.00,15.90,24.3,774.00,983.7
2020-09-29,11:35:00,DRY,3.00,15.50,26.0,774.00,992.8
2020-09-29,11:40:00,DRY,1.53,15.80,27.7,774.00,1001.2
2020-09-29,11:45:00,DRY,1.70,15.70,30.5,774.00,1010.4
2020-09-29,11:50:00,DRY,2.70,15.73,35.0,774.00,1014.4
2020-09-29,11:55:00,DRY,3.25,15.30,32.5,774.00,1022.5
2020-09-29,12:00:00,DRY,2.30,15.97,28.3,774.00,1026.4
2020-09-29,12:05:00,DRY,3.15,15.85,30.0,774.50,1031.3
2020-09-29,12:10:00,DRY,3.10,16.17,27.3,774.00,1038.2
2020-09-29,12:15:00,DRY,2.75,15.80,27.5,774.00,1040.2
2020-09-29,12:20:00,DRY,2.73,15.77,25.0,774.00,1047.9
2020-09-29,12:25:00,DRY,2.40,15.35,29.0,774.00,1050.9
2020-09-29,12:30:00,DRY,1.60,15.30,39.3,774.00,1054.8
2020-09-29,12:35:00,DRY,1.45,14.65,41.0,774.00,1056.2
2020-09-29,12:40:00,DRY,1.57,15.43,34.3,774.00,1059.8
2020-09-29,12:45:00,DRY,1.95,16.15,43.0,774.00,1061.1
2020-09-29,12:50:00,DRY,2.67,16.07,37.0,774.00,1062.8
2020-09-29,12:55:00,DRY,2.90,15.20,42.5,774.00,1064.2
2020-09-29,13:00:00,DRY,2.13,15.20,45.3,774.00,1060.8
2020-09-29,13:05:00,DRY,2.05,15.05,41.5,774.00,1061.8
2020-09-29,13:10:00,DRY,2.73,15.10,51.3,774.00,1060.4
2020-09-29,13:15:00,DRY,2.60,14.80,54.0,774.00,1058.1
2020-09-29,13:20:00,DRY,2.17,14.90,37.3,774.00,1060.1
2020-09-29,13:25:00,DRY,2.75,15.20,53.5,774.00,1058.7
2020-09-29,13:30:00,DRY,1.60,14.50,52.0,774.00,1057.4
2020-09-29,13:35:00,DRY,2.00,14.70,25.0,774.00,1050.9
2020-09-29,13:40:00,DRY,2.10,15.13,33.0,774.00,1049.9
2020-09-29,13:45:00,DRY,2.60,15.20,33.0,774.00,1043.3
2020-09-29,13:50:00,DRY,1.17,14.63,44.3,774.00,1037.1
2020-09-29,13:55:00,DRY,2.50,15.05,34.0,774.00,1032.0
2020-09-29,14:00:00,DRY,2.73,14.77,22.7,774.00,1025.8
2020-09-29,14:05:00,DRY,2.10,14.55,27.5,774.00,1019.0
2020-09-29,14:10:00,DRY,2.53,15.17,25.0,774.00,1013.6
2020-09-29,14:15:00,DRY,2.40,15.30,29.5,774.00,1004.1
2020-09-29,14:20:00,DRY,1.57,14.77,40.7,774.00,994.9
2020-09-29,14:25:00,DRY,2.00,14.80,37.0,774.00,987.4
2020-09-29,14:30:00,DRY,2.30,14.60,37.7,774.00,976.0
2020-09-29,14:35:00,DRY,2.55,14.85,31.5,774.00,968.5
2020-09-29,14:40:00,DRY,2.37,14.70,35.3,774.00,957.2
2020-09-29,14:45:00,DRY,2.10,14.35,36.0,774.00,946.6
2020-09-29,14:50:00,DRY,1.77,14.13,31.7,774.00,937.3
2020-09-29,14:55:00,DRY,1.90,13.95,35.5,774.00,925.6
2020-09-29,15:00:00,DRY,1.73,14.30,42.7,774.00,913.5
2020-09-29,15:05:00,DRY,1.50,14.30,49.5,774.00,899.3
2020-09-29,15:10:00,DRY,1.77,14.57,28.0,774.00,885.4
2020-09-29,15:15:00,DRY,2.45,14.85,34.0,774.00,874.3
2020-09-29,15:20:00,DRY,1.83,14.97,33.3,774.00,857.5
2020-09-29,15:25:00,DRY,2.45,15.15,24.5,774.00,844.5
2020-09-29,15:30:00,DRY,2.50,14.80,23.7,774.00,829.6
2020-09-29,15:35:00,DRY,0.85,14.40,26.0,774.00,814.4
2020-09-29,15:40:00,DRY,1.57,14.47,33.3,774.00,798.1
2020-09-29,15:45:00,DRY,2.25,14.40,31.5,774.00,782.5
2020-09-29,15:50:00,DRY,1.80,14.63,35.3,774.00,766.2
2020-09-29,15:55:00,DRY,2.05,14.25,40.5,774.00,747.9
2020-09-29,16:00:00,DRY,1.63,14.30,36.7,774.00,730.8
2020-09-29,16:05:00,DRY,2.00,14.50,33.0,774.00,713.1
2020-09-29,16:10:00,DRY,1.13,14.57,32.3,774.00,695.1
2020-09-29,16:15:00,DRY,2.10,15.05,27.0,774.00,676.8
2020-09-29,16:20:00,DRY,2.47,14.87,25.7,774.00,656.5
2020-09-29,16:25:00,DRY,2.25,14.70,25.0,774.00,638.2
2020-09-29,16:30:00,DRY,1.03,15.07,23.3,774.00,617.7
2020-09-29,16:35:00,DRY,2.05,14.65,26.5,774.00,598.2
2020-09-29,16:40:00,DRY,1.73,14.40,24.0,774.00,578.8
2020-09-29,16:45:00,DRY,2.00,14.55,26.5,774.00,558.3
2020-09-29,16:50:00,DRY,1.60,14.33,32.7,774.00,536.9
2020-09-29,16:55:00,DRY,1.40,14.40,27.5,774.00,517.4
2020-09-29,17:00:00,DRY,0.77,14.63,26.3,774.00,496.2
2020-09-29,17:05:00,DRY,1.35,14.85,26.0,774.00,473.9
2020-09-29,17:10:00,DRY,1.30,14.63,24.7,774.00,453.2
2020-09-29,17:15:00,DRY,1.50,14.70,24.0,774.00,431.4
2020-09-29,17:20:00,DRY,1.13,14.27,19.3,774.00,409.0
2020-09-29,17:25:00,DRY,1.05,13.95,22.5,774.00,386.7
2020-09-29,17:30:00,DRY,1.17,14.03,27.0,774.00,362.7
2020-09-29,17:35:00,DRY,1.80,14.40,23.5,774.00,341.7
2020-09-29,17:40:00,DRY,1.00,13.80,24.0,774.00,316.8
2020-09-29,17:45:00,DRY,1.45,13.75,26.0,774.00,295.7
2020-09-29,17:50:00,DRY,1.53,13.30,27.0,774.00,272.3
2020-09-29,17:55:00,DRY,0.90,13.45,26.0,774.00,249.5
2020-09-29,18:00:00,DRY,1.60,13.37,26.0,774.00,227.3
2020-09-29,18:05:00,DRY,0.85,13.50,31.0,774.00,206.1
2020-09-29,18:10:00,DRY,0.80,14.07,30.0,774.00,183.5
2020-09-29,18:15:00,DRY,0.85,13.80,24.5,774.00,143.4
2020-09-29,18:20:00,DRY,1.57,13.40,26.0,774.00,29.8
2020-09-29,18:25:00,DRY,1.15,13.05,24.5,774.00,25.0
2020-09-29,18:30:00,DRY,1.83,12.90,23.0,774.33,23.9
2020-09-29,18:35:00,DRY,0.90,13.10,24.5,774.00,20.9
2020-09-29,18:40:00,DRY,0.37,13.90,36.3,774.67,19.7
2020-09-29,18:45:00,DRY,0.90,13.95,28.5,775.00,16.9
2020-09-29,18:50:00,DRY,0.33,13.90,36.0,775.00,13.2
2020-09-29,18:55:00,DRY,0.35,14.00,34.0,775.00,10.3
2020-09-29,19:00:00,DRY,0.50,14.10,34.3,775.00,6.7
2020-09-29,19:05:00,DRY,0.25,14.05,34.0,775.00,4.3
2020-09-29,19:10:00,DRY,0.43,13.80,34.3,775.00,2.8
2020-09-29,19:15:00,DRY,0.35,13.70,34.0,775.00,1.9
2020-09-29,19:20:00,DRY,0.47,13.63,34.0,775.00,1.1
2020-09-29,19:25:00,DRY,0.50,13.60,34.0,775.00,1.1
2020-09-29,19:30:00,DRY,0.73,13.33,34.0,775.00,1.6
2020-09-29,19:35:00,DRY,0.35,13.10,34.5,775.00,1.6
2020-09-29,19:40:00,DRY,0.43,13.10,36.0,775.00,1.1
2020-09-29,19:45:00,DRY,0.45,13.10,36.0,775.00,1.2
2020-09-29,19:50:00,DRY,0.93,13.27,35.7,775.00,1.8
2020-09-29,19:55:00,DRY,0.75,13.50,35.0,775.00,1.0
2020-09-29,20:00:00,DRY,0.70,13.53,34.7,775.00,1.3
2020-09-29,20:05:00,DRY,0.50,13.45,34.5,775.00,1.7
2020-09-29,20:10:00,DRY,0.80,13.37,36.0,775.00,1.2
2020-09-29,20:15:00,DRY,1.25,13.30,34.0,775.00,0.6
2020-09-29,20:20:00,DRY,0.37,12.83,32.0,775.00,1.4
2020-09-29,20:25:00,DRY,0.30,12.65,33.0,775.00,1.2
2020-09-29,20:30:00,DRY,0.70,12.70,31.0,775.00,1.5
2020-09-29,20:35:00,DRY,0.40,12.55,28.5,775.00,0.7
2020-09-29,20:40:00,DRY,1.00,12.63,25.7,775.00,1.9
2020-09-29,20:45:00,DRY,1.30,12.65,24.0,775.00,1.9
2020-09-29,20:50:00,DRY,1.17,12.53,22.7,775.00,2.3
2020-09-29,20:55:00,DRY,1.70,12.40,23.0,775.00,1.4
2020-09-29,21:00:00,DRY,1.60,12.40,22.3,775.00,0.3
2020-09-29,21:05:00,DRY,1.80,12.40,22.0,775.00,2.1
2020-09-29,21:10:00,DRY,1.73,12.33,22.3,775.00,0.7
2020-09-29,21:15:00,DRY,1.40,12.35,22.0,775.00,1.4
2020-09-29,21:20:00,DRY,1.60,12.37,22.7,775.00,1.2
2020-09-29,21:25:00,DRY,1.95,12.40,21.0,775.00,1.9
2020-09-29,21:30:00,DRY,1.37,12.50,20.0,775.00,0.6
2020-09-29,21:35:00,DRY,1.10,12.60,19.0,775.50,1.0
2020-09-29,21:40:00,DRY,1.80,12.57,19.7,775.33,1.4
2020-09-29,21:45:00,DRY,1.10,12.35,20.0,775.00,1.7
2020-09-29,21:50:00,DRY,1.47,12.47,20.0,775.67,0.6
2020-09-29,21:55:00,DRY,1.75,12.35,20.0,775.50,1.9
2020-09-29,22:00:00,DRY,1.50,12.17,20.0,776.00,1.3
2020-09-29,22:05:00,DRY,1.75,12.20,20.0,776.00,0.5
2020-09-29,22:10:00,DRY,1.83,12.10,20.0,776.00,0.8
2020-09-29,22:15:00,DRY,2.15,12.10,20.0,776.00,0.7
2020-09-29,22:20:00,DRY,2.53,12.13,20.7,776.00,2.0
2020-09-29,22:25:00,DRY,2.25,12.05,21.0,776.00,1.5
2020-09-29,22:30:00,DRY,2.70,12.17,20.0,775.67,1.1
2020-09-29,22:35:00,DRY,3.05,12.40,20.0,775.50,0.9
2020-09-29,22:40:00,DRY,2.30,12.37,20.0,776.00,1.3
2020-09-29,22:45:00,DRY,2.70,12.35,20.0,776.00,1.2
2020-09-29,22:50:00,DRY,2.13,12.30,20.0,775.67,1.2
2020-09-29,22:55:00,DRY,1.35,12.25,20.0,776.00,1.3
2020-09-29,23:00:00,DRY,2.20,12.30,20.0,776.00,1.3
2020-09-29,23:05:00,DRY,1.70,12.30,20.0,776.00,1.7
2020-09-29,23:10:00,DRY,1.77,12.40,20.0,776.00,1.1
2020-09-29,23:15:00,DRY,2.15,12.30,20.0,776.00,1.1
2020-09-29,23:20:00,DRY,1.70,12.33,20.7,775.67,0.9
2020-09-29,23:25:00,DRY,1.55,12.45,21.0,775.50,1.7
2020-09-29,23:30:00,DRY,1.73,12.33,20.7,775.67,1.1
2020-09-29,23:35:00,DRY,1.85,12.30,21.0,775.50,1.4
2020-09-29,23:40:00,DRY,2.13,12.23,21.0,775.00,1.4
2020-09-29,23:45:00,DRY,1.95,12.25,21.5,775.00,0.4
2020-09-29,23:50:00,DRY,2.17,12.57,21.3,775.00,1.8
2020-09-29,23:55:00,DRY,2.05,12.30,20.5,775.00,1.1
2020-09-30,00:00:00,DRY,1.87,12.57,22.0,775.00,1.0
2020-09-30,00:05:00,DRY,1.60,12.70,21.0,775.00,1.2
2020-09-30,00:10:00,DRY,1.73,12.73,23.3,775.00,1.2
2020-09-30,00:15:00,DRY,1.80,13.00,27.0,775.00,0.3
2020-09-30,00:20:00,DRY,1.47,13.13,31.3,775.00,1.9
2020-09-30,00:25:00,DRY,1.00,13.10,32.5,775.00,1.1
2020-09-30,00:30:00,DRY,1.00,13.13,36.7,775.00,2.4
2020-09-30,00:35:00,DRY,0.35,12.90,35.0,775.00,0.6
2020-09-30,00:40:00,DRY,0.50,12.53,33.7,775.00,0.6
2020-09-30,00:45:00,DRY,0.65,12.55,28.0,775.00,1.1
2020-09-30,00:50:00,DRY,0.83,12.60,29.7,775.00,1.4
2020-09-30,00:55:00,DRY,0.50,12.80,32.5,775.00,0.8
2020-09-30,01:00:00,DRY,0.37,12.57,32.0,775.00,1.7
2020-09-30,01:05:00,DRY,0.95,12.45,28.0,775.00,1.5
2020-09-30,01:10:00,DRY,1.40,12.33,24.0,775.00,0.8
2020-09-30,01:15:00,DRY,1.35,12.30,22.0,775.00,1.0
2020-09-30,01:20:00,DRY,1.00,12.33,22.3,775.00,1.3
2020-09-30,01:25:00,DRY,1.20,12.30,23.0,775.00,2.1
2020-09-30,01:30:00,DRY,1.43,12.07,24.3,775.00,2.1
2020-09-30,01:35:00,DRY,1.15,12.25,25.0,775.00,0.8
2020-09-30,01:40:00,DRY,1.50,12.20,25.3,775.00,0.7
2020-09-30,01:45:00,DRY,2.45,12.10,23.5,775.00,0.8
2020-09-30,01:50:00,DRY,1.17,12.20,25.0,775.00,1.1
2020-09-30,01:55:00,DRY,1.65,12.45,26.5,775.00,2.0
2020-09-30,02:00:00,DRY,1.53,12.33,24.0,775.00,1.0
2020-09-30,02:05:00,DRY,1.05,12.05,23.5,775.00,2.2
2020-09-30,02:10:00,DRY,1.13,12.07,24.0,775.00,0.8
2020-09-30,02:15:00,DRY,1.60,12.00,23.5,775.00,1.1
2020-09-30,02:20:00,DRY,1.20,12.07,23.3,775.00,0.2
2020-09-30,02:25:00,DRY,1.75,12.10,23.5,775.00,1.4
2020-09-30,02:30:00,DRY,1.97,11.80,24.0,775.00,1.2
2020-09-30,02:35:00,DRY,1.40,11.80,23.0,775.00,1.6
2020-09-30,02:40:00,DRY,1.70,12.00,24.0,774.00,0.7
2020-09-30,02:45:00,DRY,1.00,12.10,22.5,774.00,1.6
2020-09-30,02:50:00,DRY,1.73,12.13,23.7,774.33,2.0
2020-09-30,02:55:00,DRY,1.30,12.25,25.0,774.00,0.3
2020-09-30,03:00:00,DRY,2.03,12.37,23.0,774.00,1.1
2020-09-30,03:05:00,DRY,1.60,12.30,23.5,774.00,1.0
2020-09-30,03:10:00,DRY,1.50,12.47,28.7,774.00,1.6
2020-09-30,03:15:00,DRY,2.10,12.25,23.5,774.00,0.8
2020-09-30,03:20:00,DRY,1.83,12.10,23.3,774.00,1.1
2020-09-30,03:25:00,DRY,2.30,12.35,23.0,774.00,1.4
2020-09-30,03:30:00,DRY,2.13,12.20,23.3,774.00,1.0
2020-09-30,03:35:00,DRY,1.15,12.30,28.5,774.00,1.9
2020-09-30,03:40:00,DRY,1.43,12.57,34.7,774.00,1.4
2020-09-30,03:45:00,DRY,1.55,12.90,32.0,774.00,1.1
2020-09-30,03:50:00,DRY,1.50,12.63,33.0,774.00,2.0
2020-09-30,03:55:00,DRY,1.40,12.95,29.5,774.00,1.6
2020-09-30,04:00:00,DRY,1.30,13.43,27.7,774.00,0.5
2020-09-30,04:05:00,DRY,1.15,13.25,30.0,774.00,2.5
2020-09-30,04:10:00,DRY,1.07,13.13,30.7,774.00,2.2
2020-09-30,04:15:00,DRY,0.80,12.95,31.5,774.00,2.6
2020-09-30,04:20:00,DRY,1.27,12.83,32.0,774.33,1.9
2020-09-30,04:25:00,DRY,1.15,12.60,33.0,774.00,1.9
2020-09-30,04:30:00,DRY,1.47,12.37,34.0,774.00,1.4
2020-09-30,04:35:00,DRY,1.25,12.25,32.5,774.00,0.9
2020-09-30,04:40:00,DRY,1.07,12.93,31.3,774.00,1.9
2020-09-30,04:45:00,DRY,0.95,13.00,32.0,774.00,1.6
2020-09-30,04:50:00,DRY,1.23,12.97,33.0,774.00,1.0
2020-09-30,04:55:00,DRY,0.55,12.40,32.5,774.50,1.4
2020-09-30,05:00:00,DRY,0.77,12.27,34.0,774.00,1.5
2020-09-30,05:05:00,DRY,1.25,12.55,34.5,774.00,0.1
2020-09-30,05:10:00,DRY,1.30,12.30,36.3,774.00,2.2
2020-09-30,05:15:00,DRY,1.90,12.45,34.5,774.00,1.9
2020-09-30,05:20:00,DRY,2.73,12.97,31.3,774.00,1.1
2020-09-30,05:25:00,DRY,3.05,12.45,33.5,774.00,1.4
2020-09-30,05:30:00,DRY,1.97,12.40,33.7,774.67,1.4
2020-09-30,05:35:00,DRY,2.10,11.95,34.0,774.50,0.7
2020-09-30,05:40:00,DRY,1.50,12.50,33.7,775.00,0.8
2020-09-30,05:45:00,DRY,0.70,13.10,32.0,775.00,1.6
2020-09-30,05:50:00,DRY,0.27,12.80,32.7,775.00,1.5
2020-09-30,05:55:00,DRY,0.25,12.50,33.0,775.00,1.2
2020-09-30,06:00:00,DRY,0.73,12.37,33.3,775.00,0.8
2020-09-30,06:05:00,DRY,0.15,12.00,34.5,775.00,0.9
2020-09-30,06:10:00,DRY,0.37,11.90,34.3,775.00,1.3
2020-09-30,06:15:00,DRY,0.85,12.05,34.0,775.00,1.6
2020-09-30,06:20:00,DRY,2.40,12.43,32.3,775.00,1.0
2020-09-30,06:25:00,DRY,3.20,12.35,33.0,775.00,0.9
2020-09-30,06:30:00,DRY,3.23,12.17,33.3,775.00,1.4
2020-09-30,06:35:00,DRY,3.35,12.05,34.0,775.00,0.9
2020-09-30,06:40:00,DRY,2.97,12.10,34.0,775.00,0.9
2020-09-30,06:45:00,DRY,2.60,12.25,33.5,775.00,0.8
2020-09-30,06:50:00,DRY,2.30,12.33,33.7,775.00,1.8
2020-09-30,06:55:00,DRY,2.50,12.80,33.0,775.00,3.0
2020-09-30,07:00:00,DRY,2.23,12.37,33.7,775.00,4.6
2020-09-30,07:05:00,DRY,1.65,12.70,33.5,775.00,7.6
2020-09-30,07:10:00,DRY,1.97,12.43,34.0,775.00,10.2
2020-09-30,07:15:00,DRY,1.85,12.30,34.0,775.00,13.9
2020-09-30,07:20:00,DRY,0.87,12.33,32.3,775.00,16.3
2020-09-30,07:25:00,DRY,0.35,12.25,32.0,775.00,19.9
2020-09-30,07:30:00,DRY,0.57,12.77,30.0,775.00,21.1
2020-09-30,07:35:00,DRY,1.20,12.50,32.0,775.00,23.6
2020-09-30,07:40:00,DRY,0.43,11.93,32.3,775.00,82.7
2020-09-30,07:45:00,DRY,0.55,12.05,34.0,775.00,174.1
2020-09-30,07:50:00,DRY,0.17,12.47,33.3,775.00,198.5
2020-09-30,07:55:00,DRY,0.20,13.35,30.5,775.00,197.6
2020-09-30,08:00:00,DRY,0.97,13.60,28.7,775.00,239.8
2020-09-30,08:05:00,DRY,0.95,13.65,28.5,775.00,266.9
2020-09-30,08:10:00,DRY,1.00,13.43,29.7,775.00,290.6
2020-09-30,08:15:00,DRY,0.50,13.40,28.5,775.00,313.7
2020-09-30,08:20:00,DRY,0.33,14.27,26.7,775.00,335.9
2020-09-30,08:25:00,DRY,0.40,14.80,26.0,775.00,359.2
2020-09-30,08:30:00,DRY,1.00,14.87,27.0,775.00,381.6
2020-09-30,08:35:00,DRY,1.30,14.75,27.0,775.00,405.9
2020-09-30,08:40:00,DRY,0.63,14.73,27.7,775.00,427.8
2020-09-30,08:45:00,DRY,0.50,14.95,27.0,775.00,448.2
2020-09-30,08:50:00,DRY,1.10,14.80,26.7,775.00,470.4
2020-09-30,08:55:00,DRY,0.65,15.20,24.5,775.00,492.1
2020-09-30,09:00:00,DRY,1.70,15.40,25.0,775.00,514.6
2020-09-30,09:05:00,DRY,0.95,14.80,27.0,775.00,534.8
2020-09-30,09:10:00,DRY,1.67,14.53,28.0,775.00,554.6
2020-09-30,09:15:00,DRY,0.80,14.20,28.5,775.00,574.7
2020-09-30,09:20:00,DRY,0.77,14.50,28.7,775.00,596.2
2020-09-30,09:25:00,DRY,0.40,14.95,27.5,775.00,615.5
2020-09-30,09:30:00,DRY,0.70,15.63,27.3,775.00,635.8
2020-09-30,09:35:00,DRY,1.60,14.60,28.5,775.00,654.5
2020-09-30,09:40:00,DRY,0.80,14.73,27.3,775.00,674.5
2020-09-30,09:45:00,DRY,0.50,15.70,27.0,775.00,693.3
2020-09-30,09:50:00,DRY,1.20,15.87,27.0,775.00,711.5
2020-09-30,09:55:00,DRY,1.60,15.30,28.0,775.00,728.1
2020-09-30,10:00:00,DRY,0.57,15.40,27.7,775.00,745.9
2020-09-30,10:05:00,DRY,1.05,15.85,27.0,775.00,763.4
2020-09-30,10:10:00,DRY,1.40,15.37,28.7,775.00,781.0
2020-09-30,10:15:00,DRY,1.70,15.40,29.0,775.00,797.0
2020-09-30,10:20:00,DRY,0.97,15.33,29.0,775.00,812.7
2020-09-30,10:25:00,DRY,1.50,15.40,29.0,775.00,826.5
2020-09-30,10:30:00,DRY,1.23,15.87,28.0,775.00,839.7
2020-09-30,10:35:00,DRY,0.75,16.00,28.0,775.00,856.8
2020-09-30,10:40:00,DRY,0.97,16.80,27.3,775.00,868.8
2020-09-30,10:45:00,DRY,1.40,17.05,27.5,775.00,882.6
2020-09-30,10:50:00,DRY,1.50,16.77,29.0,775.00,897.5
2020-09-30,10:55:00,DRY,2.25,16.50,28.5,775.00,908.2
2020-09-30,11:00:00,DRY,1.47,15.77,29.0,775.00,919.7
2020-09-30,11:05:00,DRY,2.05,15.10,29.5,775.00,931.0
2020-09-30,11:10:00,DRY,1.73,15.50,30.0,775.00,944.5
2020-09-30,11:15:00,DRY,0.50,15.30,30.0,775.00,954.5
2020-09-30,11:20:00,DRY,1.23,16.63,28.3,775.00,964.3
2020-09-30,11:25:00,DRY,1.55,16.20,27.0,775.00,975.2
2020-09-30,11:30:00,DRY,1.40,16.13,30.0,775.00,985.2
2020-09-30,11:35:00,DRY,1.75,16.80,29.0,775.00,994.9
2020-09-30,11:40:00,DRY,2.13,15.90,27.7,775.00,1001.8
2020-09-30,11:45:00,DRY,1.40,15.65,30.0,775.00,1008.6
2020-09-30,11:50:00,DRY,1.13,16.90,30.3,775.00,1018.0
2020-09-30,11:55:00,DRY,1.40,16.75,29.0,775.00,1023.8
2020-09-30,12:00:00,DRY,0.93,16.43,32.3,775.00,1030.4
2020-09-30,12:05:00,DRY,1.80,16.55,33.0,775.00,1038.0
2020-09-30,12:10:00,DRY,0.93,16.03,35.7,775.00,1040.9
2020-09-30,12:15:00,DRY,1.65,16.75,33.5,775.00,1043.3
2020-09-30,12:20:00,DRY,2.50,15.67,34.7,775.00,1046.9
2020-09-30,12:25:00,DRY,1.80,15.05,38.0,775.00,1051.4
2020-09-30,12:30:00,DRY,1.20,15.83,30.7,775.00,1054.6
2020-09-30,12:35:00,DRY,2.65,16.10,28.5,775.00,865.8
2020-09-30,12:40:00,DRY,1.33,15.40,28.3,775.00,897.7
2020-09-30,12:45:00,DRY,1.05,15.65,30.5,775.00,900.2
2020-09-30,12:50:00,DRY,1.43,16.40,29.0,775.00,884.2
2020-09-30,12:55:00,DRY,1.55,16.05,27.5,775.00,923.0
2020-09-30,13:00:00,DRY,0.87,16.07,28.3,775.00,910.6
2020-09-30,13:05:00,DRY,1.20,16.75,30.0,775.00,908.6
2020-09-30,13:10:00,DRY,1.67,17.07,27.0,775.00,976.3
2020-09-30,13:15:00,DRY,1.60,15.65,30.5,775.00,1063.5
2020-09-30,13:20:00,DRY,1.27,15.63,28.7,775.00,1059.8